This demonstration page uses our WeatherBlox Daily Observations layout. Learn more.

Left ArrowRight Arrow

30.21309, -93.2044

Hourly Observations for January 11, 2022

Temp ( °F °C ) Dew Point ( °F °C ) Humidity (%) Winds ( mph kmh ) Pressure ( in mb ) Visibility ( mi km ) Precip ( " mm )
12:15 am 00:15 Clear 41 4.8 21 -6.2 45 45 NNE 7 11 30.57 1035 10 16 0.00 0.00
12:35 am 00:35 Clear 40 4.7 21 -6 46 46 NNE 6 9 30.56 1035 10 16 0.00 0.00
12:55 am 00:55 Clear 40 4.7 21 -5.9 47 47 NNE 8 13 30.55 1035 10 16 0.00 0.00
1:15 am 01:15 Clear 40 4.7 21 -5.9 47 47 NNE 8 13 30.54 1034 10 16 0.00 0.00
1:35 am 01:35 Clear 40 4.6 21 -5.9 47 47 NNE 8 13 30.54 1034 10 16 0.00 0.00
1:55 am 01:55 Clear 40 4.5 22 -5.7 48 48 NNE 7 11 30.54 1034 10 16 0.00 0.00
2:15 am 02:15 Clear 40 4.4 23 -5.2 50 50 NE 7 11 30.53 1034 10 16 0.00 0.00
2:35 am 02:35 Clear 40 4.2 23 -5 52 52 NNE 8 13 30.53 1034 10 16 0.00 0.00
2:55 am 02:55 Clear 39 4 24 -4.7 53 53 NNE 8 13 30.53 1034 10 16 0.00 0.00
3:15 am 03:15 Clear 39 4 24 -4.6 54 54 NNE 8 13 30.53 1034 10 16 0.00 0.00
3:35 am 03:35 Clear 38 3.6 24 -4.4 56 56 NNE 8 13 30.54 1034 10 16 0.00 0.00
3:55 am 03:55 Clear 39 3.7 24 -4.4 56 56 NE 9 15 30.53 1034 10 16 0.00 0.00
4:15 am 04:15 Clear 38 3.4 24 -4.2 58 58 NNE 9 15 30.53 1034 10 16 0.00 0.00
4:35 am 04:35 Clear 38 3.2 24 -4.2 59 59 NNE 8 13 30.53 1034 10 16 0.00 0.00
4:55 am 04:55 Clear 38 3.1 24 -4.2 59 59 NNE 8 13 30.54 1034 10 16 0.00 0.00
5:15 am 05:15 Clear 37 2.9 24 -4.2 60 60 NNE 8 13 30.53 1034 10 16 0.00 0.00
5:35 am 05:35 Clear 37 2.9 24 -4.3 60 60 NNE 7 11 30.54 1034 10 16 0.00 0.00
6:00 am 06:00 Mostly Clear 37 3 25 -4 60 60 NNE 6 9 30.55 1035 10 16 0.00 0.00
6:54 am 06:54 Mostly Clear 36 2 25 -4 65 65 NE 7 11 30.56 1035 10 16 0.00 0.00
7:48 am 07:48 Mostly Sunny 37 3 25 -4 60 60 NNE 7 11 30.58 1036 10 16 0.00 0.00
8:46 am 08:46 Mostly Sunny 43 6 27 -3 53 53 ENE 10 17 30.58 1036 10 16 0.00 0.00
9:52 am 09:52 Mostly Sunny 48 9 27 -3 43 43 NE 12 19 30.58 1036 10 16 0.00 0.00
10:47 am 10:47 Mostly Sunny 52 11 25 -4 35 35 NE 13 20 30.56 1035 10 16 0.00 0.00
11:54 am 11:54 Mostly Sunny 55 13 21 -6 26 26 ENE 13 20 30.54 1034 10 16 0.00 0.00
12:47 pm 12:47 Mostly Sunny 55 13 25 -4 31 31 E 8 13 30.51 1033 10 16 0.00 0.00
1:47 pm 13:47 Mostly Sunny 59 15 25 -4 27 27 NE 8 13 30.47 1032 10 16 0.00 0.00
2:55 pm 14:55 Mostly Sunny 57 14 25 -4 29 29 ENE 6 9 30.46 1031 10 16 0.00 0.00
3:45 pm 15:45 Mostly Sunny 57 14 25 -4 29 29 ENE 6 9 30.45 1031 10 16 0.00 0.00
4:45 pm 16:45 Mostly Sunny 55 13 27 -3 33 33 ENE 6 9 30.42 1030 10 16 0.00 0.00
5:45 pm 17:45 Mostly Clear 55 13 28 -2 36 36 Calm 30.43 1030 10 16 0.00 0.00
6:45 pm 18:45 Mostly Clear 54 12 32 0 44 44 Calm 30.44 1031 10 16 0.00 0.00
7:45 pm 19:45 Mostly Clear 52 11 34 1 50 50 Calm 30.45 1031 10 16 0.00 0.00
8:45 pm 20:45 Mostly Clear 52 11 34 1 50 50 Calm 30.46 1031 10 16 0.00 0.00
9:45 pm 21:45 Mostly Clear 50 10 36 2 58 58 Calm 30.43 1030 10 16 0.00 0.00
10:15 pm 22:15 Partly Cloudy 51 10.4 34 1.1 53 53 Calm 30.43 1030 10 16 0.00 0.00
10:35 pm 22:35 Partly Cloudy 50 10 35 1.9 57 57 ENE 3 6 30.42 1030 10 16 0.00 0.00
10:55 pm 22:55 Mostly Cloudy 50 10.1 35 1.9 57 57 ENE 6 9 30.41 1030 10 16 0.00 0.00
11:15 pm 23:15 Mostly Cloudy 51 10.5 33 0.7 51 51 Calm 30.41 1030 10 16 0.00 0.00
11:35 pm 23:35 Mostly Cloudy 51 10.3 33 0.8 52 52 Calm 30.41 1030 10 16 0.00 0.00
11:55 pm 23:55 Mostly Cloudy 51 10.3 34 1.1 53 53 Calm 30.40 1029 10 16 0.00 0.00

Powered by AerisWeather